Location: Augsburg
(48.3836°N, 10.8929°E)
Time: 22:30:03
(UTC+01:00)

ISS - Visible Passes

Search period start: 25 February 2018 00:00
Search period end: 07 March 2018 00:00
Orbit: 403 x 406 km, 51.6° (Epoch: 26 February)

Date Brightness Start Highest point End Pass type
(mag) Time Alt. Az. Time Alt. Az. Time Alt. Az.
26 Feb -1.0 06:24:37 10° S 06:26:56 18° SE 06:29:15 10° E visible
27 Feb -0.7 05:34:08 10° SSE 05:34:57 11° SE 05:35:46 10° ESE visible
28 Feb -2.3 06:15:40 10° SSW 06:18:41 34° SE 06:21:42 10° E visible
01 Mar -1.6 05:24:08 11° S 05:26:34 21° SE 05:29:09 10° E visible
02 Mar -1.1 04:34:18 13° SE 04:34:32 13° SE 04:36:08 10° ESE visible
02 Mar -3.5 06:07:15 10° SW 06:10:30 66° SSE 06:13:45 10° ENE visible
03 Mar -2.8 05:17:00 27° SSW 05:18:17 41° SSE 05:21:24 10° ENE visible
04 Mar -1.6 04:26:55 23° ESE 04:26:55 23° ESE 04:28:54 10° E visible
04 Mar -3.8 05:59:34 14° WSW 06:02:22 75° NNW 06:05:39 10° ENE visible
05 Mar -3.8 05:09:24 53° SW 05:10:03 76° SSE 05:13:20 10° ENE visible
06 Mar -1.8 04:19:09 28° E 04:19:09 28° E 04:20:58 10° ENE visible
06 Mar -3.4 05:51:48 16° W 05:54:16 53° NNW 05:57:29 10° ENE visible
